| time (UTC) | temp F | wind direction | speed knots | gust knots | rain 1hr in | rain 24hr in | rain mn in | humidity % | barometer mb |
| 20260510204703 | 67 | 92 | 3.5 | 7.8 | 0.00 | 0.00 | 0.00 | 42 | 1000.0 |
| 20260510203704 | 67 | 14 | 2.6 | 7.0 | 0.00 | 0.00 | 0.00 | 39 | 1000.0 |
| 20260510203203 | 67 | 57 | 4.3 | 7.8 | 0.00 | 0.00 | 0.00 | 42 | 1000.0 |
| 20260510202704 | 68 | 33 | 2.6 | 7.8 | 0.00 | 0.00 | 0.00 | 42 | 1000.0 |
| 20260510202203 | 68 | 27 | 3.5 | 8.7 | 0.00 | 0.00 | 0.00 | 41 | 1000.0 |
| 20260510201703 | 67 | 3 | 4.3 | 8.7 | 0.00 | 0.00 | 0.00 | 42 | 1000.0 |
| 20260510201203 | 67 | 349 | 3.5 | 7.8 | 0.00 | 0.00 | 0.00 | 42 | 1000.0 |
| 20260510200704 | 66 | 348 | 5.2 | 10.4 | 0.00 | 0.00 | 0.00 | 43 | 1000.0 |
| 20260510195703 | 66 | 9 | 1.7 | 7.0 | 0.00 | 0.00 | 0.00 | 46 | 1000.0 |
| 20260510195203 | 65 | 11 | 4.3 | 10.4 | 0.00 | 0.00 | 0.00 | 46 | 1000.0 |
| 20260510194704 | 66 | 351 | 4.3 | 8.7 | 0.00 | 0.00 | 0.00 | 46 | 1000.0 |
| 20260510194204 | 66 | 4 | 5.2 | 10.4 | 0.00 | 0.00 | 0.00 | 47 | 1000.0 |
| 20260510193704 | 67 | 336 | 4.3 | 11.3 | 0.00 | 0.00 | 0.00 | 45 | 1000.0 |
| 20260510193204 | 68 | 13 | 2.6 | 7.0 | 0.00 | 0.00 | 0.00 | 43 | 1000.0 |
| 20260510192703 | 67 | 343 | 2.6 | 7.8 | 0.00 | 0.00 | 0.00 | 42 | 1000.0 |
| 20260510192204 | 67 | 339 | 3.5 | 7.0 | 0.00 | 0.00 | 0.00 | 41 | 1000.0 |
| 20260510191704 | 68 | 32 | 2.6 | 6.1 | 0.00 | 0.00 | 0.00 | 37 | 1000.0 |
| 20260510191204 | 68 | 36 | 4.3 | 10.4 | 0.00 | 0.00 | 0.00 | 37 | 1000.0 |
| 20260510190703 | 68 | 28 | 3.5 | 7.8 | 0.00 | 0.00 | 0.00 | 37 | 1000.0 |
| 20260510190203 | 68 | 359 | 4.3 | 10.4 | 0.00 | 0.00 | 0.00 | 38 | 1000.0 |
| 20260510185704 | 69 | 5 | 4.3 | 8.7 | 0.00 | 0.00 | 0.00 | 37 | 1000.0 |
| 20260510185204 | 69 | 3 | 3.5 | 7.8 | 0.00 | 0.00 | 0.00 | 37 | 1000.0 |
| 20260510184704 | 69 | 5 | 4.3 | 7.8 | 0.00 | 0.00 | 0.00 | 37 | 1000.0 |
| 20260510184204 | 68 | 41 | 5.2 | 7.8 | 0.00 | 0.00 | 0.00 | 36 | 1000.0 |
| 20260510183704 | 68 | 10 | 5.2 | 8.7 | 0.00 | 0.00 | 0.00 | 33 | 1000.0 |
| 20260510183204 | 68 | 28 | 5.2 | 8.7 | 0.00 | 0.00 | 0.00 | 36 | 1000.0 |
| 20260510182703 | 69 | 0 | 5.2 | 10.4 | 0.00 | 0.00 | 0.00 | 35 | 1000.0 |
| 20260510182203 | 69 | 31 | 4.3 | 7.8 | 0.00 | 0.00 | 0.00 | 35 | 1000.0 |
| 20260510181703 | 69 | 5 | 5.2 | 10.4 | 0.00 | 0.00 | 0.00 | 34 | 1000.0 |
| 20260510181204 | 69 | 41 | 5.2 | 7.0 | 0.00 | 0.00 | 0.00 | 35 | 1000.0 |
| 20260510180703 | 69 | 23 | 5.2 | 11.3 | 0.00 | 0.00 | 0.00 | 35 | 1000.0 |
| 20260510175703 | 69 | 2 | 4.3 | 8.7 | 0.00 | 0.00 | 0.00 | 36 | 1000.0 |
| 20260510175204 | 69 | 1 | 4.3 | 11.3 | 0.00 | 0.00 | 0.00 | 38 | 1000.0 |
| 20260510174703 | 69 | 349 | 5.2 | 10.4 | 0.00 | 0.00 | 0.00 | 35 | 1000.0 |
| 20260510174204 | 69 | 30 | 4.3 | 8.7 | 0.00 | 0.00 | 0.00 | 36 | 1000.0 |
| 20260510173704 | 69 | 23 | 6.1 | 12.2 | 0.00 | 0.00 | 0.00 | 35 | 1000.0 |
| 20260510173204 | 69 | 13 | 5.2 | 8.7 | 0.00 | 0.00 | 0.00 | 35 | 1000.0 |
| 20260510172704 | 70 | 16 | 3.5 | 11.3 | 0.00 | 0.00 | 0.00 | 35 | 1000.0 |
| 20260510172204 | 69 | 358 | 5.2 | 11.3 | 0.00 | 0.00 | 0.00 | 35 | 1000.0 |
| 20260510171703 | 69 | 43 | 5.2 | 10.4 | 0.00 | 0.00 | 0.00 | 36 | 1000.0 |
| 20260510171203 | 69 | 7 | 5.2 | 8.7 | 0.00 | 0.00 | 0.00 | 37 | 1000.0 |
| 20260510170704 | 69 | 44 | 5.2 | 8.7 | 0.00 | 0.00 | 0.00 | 36 | 1000.0 |
| 20260510170204 | 69 | 47 | 1.7 | 7.8 | 0.00 | 0.00 | 0.00 | 38 | 1000.0 |
| 20260510165704 | 69 | 73 | 2.6 | 6.1 | 0.00 | 0.00 | 0.00 | 39 | 1000.0 |
| 20260510165203 | 68 | 14 | 4.3 | 8.7 | 0.00 | 0.00 | 0.00 | 38 | 1000.0 |
| 20260510164703 | 68 | 56 | 5.2 | 10.4 | 0.00 | 0.00 | 0.00 | 37 | 1000.0 |
| 20260510164203 | 68 | 25 | 6.1 | 11.3 | 0.00 | 0.00 | 0.00 | 37 | 1000.0 |
| 20260510163704 | 68 | 45 | 5.2 | 11.3 | 0.00 | 0.00 | 0.00 | 38 | 1000.0 |
| 20260510163204 | 68 | 22 | 5.2 | 12.2 | 0.00 | 0.00 | 0.00 | 37 | 1000.0 |
| 20260510162703 | 68 | 25 | 5.2 | 7.8 | 0.00 | 0.00 | 0.00 | 38 | 1000.0 |
| 20260510162204 | 69 | 5 | 4.3 | 7.8 | 0.00 | 0.00 | 0.00 | 38 | 1000.0 |
| 20260510161703 | 69 | 352 | 2.6 | 7.0 | 0.00 | 0.00 | 0.00 | 39 | 1000.0 |
| 20260510161203 | 68 | 15 | 3.5 | 8.7 | 0.00 | 0.00 | 0.00 | 40 | 1000.0 |
| 20260510160704 | 68 | 126 | 1.7 | 7.8 | 0.00 | 0.00 | 0.00 | 43 | 1000.0 |
| 20260510155703 | 66 | 40 | 5.2 | 10.4 | 0.00 | 0.00 | 0.00 | 43 | 1000.0 |
| 20260510154703 | 66 | 39 | 6.1 | 11.3 | 0.00 | 0.00 | 0.00 | 41 | 1000.0 |
| 20260510154203 | 66 | 16 | 6.1 | 8.7 | 0.00 | 0.00 | 0.00 | 42 | 1000.0 |
| 20260510153703 | 66 | 37 | 5.2 | 8.7 | 0.00 | 0.00 | 0.00 | 42 | 1000.0 |
| 20260510153204 | 66 | 37 | 5.2 | 7.8 | 0.00 | 0.00 | 0.00 | 43 | 1000.0 |
| 20260510152704 | 66 | 38 | 3.5 | 7.8 | 0.00 | 0.00 | 0.00 | 44 | 1000.0 |
| 20260510152204 | 66 | 24 | 5.2 | 7.8 | 0.00 | 0.00 | 0.00 | 44 | 1000.0 |
| 20260510151704 | 66 | 37 | 3.5 | 8.7 | 0.00 | 0.00 | 0.00 | 44 | 1000.0 |
| 20260510150704 | 65 | 32 | 3.5 | 11.3 | 0.00 | 0.00 | 0.00 | 45 | 1000.0 |
| 20260510145704 | 65 | 31 | 2.6 | 7.8 | 0.00 | 0.00 | 0.00 | 48 | 1000.0 |
| 20260510145204 | 64 | 10 | 4.3 | 7.8 | 0.00 | 0.00 | 0.00 | 48 | 1000.0 |
| 20260510144703 | 64 | 18 | 4.3 | 7.8 | 0.00 | 0.00 | 0.00 | 48 | 1000.0 |
| 20260510144203 | 64 | 20 | 5.2 | 10.4 | 0.00 | 0.00 | 0.00 | 46 | 1000.0 |
| 20260510143204 | 64 | 25 | 4.3 | 7.8 | 0.00 | 0.00 | 0.00 | 48 | 1000.0 |
| 20260510142703 | 64 | 26 | 4.3 | 8.7 | 0.00 | 0.00 | 0.00 | 47 | 1000.0 |
| 20260510142204 | 64 | 34 | 4.3 | 7.0 | 0.00 | 0.00 | 0.00 | 48 | 1000.0 |
| 20260510141704 | 64 | 11 | 4.3 | 7.8 | 0.00 | 0.00 | 0.00 | 48 | 1000.0 |
| 20260510141203 | 64 | 43 | 4.3 | 7.8 | 0.00 | 0.00 | 0.00 | 50 | 1000.0 |
| 20260510140203 | 62 | 28 | 5.2 | 7.8 | 0.00 | 0.00 | 0.00 | 50 | 1000.0 |
| 20260510135703 | 62 | 29 | 4.3 | 7.8 | 0.00 | 0.00 | 0.00 | 51 | 1000.0 |
| 20260510134704 | 63 | 27 | 4.3 | 7.8 | 0.00 | 0.00 | 0.00 | 52 | 1000.0 |
| 20260510134203 | 63 | 32 | 2.6 | 8.7 | 0.00 | 0.00 | 0.00 | 53 | 1000.0 |
| 20260510133704 | 63 | 14 | 4.3 | 8.7 | 0.00 | 0.00 | 0.00 | 52 | 1000.0 |
| 20260510133204 | 63 | 34 | 4.3 | 11.3 | 0.00 | 0.00 | 0.00 | 52 | 1000.0 |
| 20260510132704 | 62 | 26 | 5.2 | 10.4 | 0.00 | 0.00 | 0.00 | 52 | 1000.0 |
| 20260510132203 | 62 | 27 | 5.2 | 10.4 | 0.00 | 0.00 | 0.00 | 54 | 1000.0 |
| 20260510131704 | 62 | 56 | 2.6 | 10.4 | 0.00 | 0.00 | 0.00 | 54 | 1000.0 |
| 20260510130703 | 62 | 31 | 5.2 | 10.4 | 0.00 | 0.00 | 0.00 | 53 | 1000.0 |
| 20260510130204 | 62 | 34 | 6.1 | 11.3 | 0.00 | 0.00 | 0.00 | 53 | 1000.0 |
| 20260510125705 | 62 | 43 | 4.3 | 7.8 | 0.00 | 0.00 | 0.00 | 54 | 1000.0 |
| 20260510125203 | 62 | 40 | 3.5 | 7.8 | 0.00 | 0.00 | 0.00 | 56 | 1000.0 |
| 20260510124704 | 61 | 40 | 5.2 | 8.7 | 0.00 | 0.00 | 0.00 | 56 | 1000.0 |
| 20260510124203 | 61 | 13 | 5.2 | 10.4 | 0.00 | 0.00 | 0.00 | 56 | 1000.0 |
| 20260510123703 | 61 | 45 | 4.3 | 8.7 | 0.00 | 0.00 | 0.00 | 58 | 1000.0 |
| 20260510123203 | 61 | 20 | 4.3 | 7.8 | 0.00 | 0.00 | 0.00 | 58 | 1000.0 |
| 20260510122704 | 61 | 13 | 4.3 | 11.3 | 0.00 | 0.00 | 0.00 | 60 | 1000.0 |
| 20260510122203 | 61 | 18 | 2.6 | 7.8 | 0.00 | 0.00 | 0.00 | 61 | 1000.0 |
| 20260510121703 | 61 | 22 | 5.2 | 7.8 | 0.00 | 0.00 | 0.00 | 62 | 1000.0 |
| 20260510121204 | 61 | 26 | 5.2 | 10.4 | 0.00 | 0.00 | 0.00 | 61 | 1000.0 |
| 20260510120704 | 61 | 49 | 4.3 | 7.0 | 0.00 | 0.00 | 0.00 | 62 | 1000.0 |
| 20260510120204 | 61 | 46 | 2.6 | 7.8 | 0.00 | 0.00 | 0.00 | 62 | 1000.0 |
| 20260510115703 | 61 | 30 | 2.6 | 7.8 | 0.00 | 0.00 | 0.00 | 63 | 1000.0 |
| 20260510115203 | 61 | 26 | 3.5 | 7.0 | 0.00 | 0.00 | 0.00 | 63 | 1000.0 |
| 20260510114703 | 61 | 26 | 4.3 | 7.8 | 0.00 | 0.00 | 0.00 | 64 | 1000.0 |
| 20260510113704 | 61 | 35 | 3.5 | 8.7 | 0.00 | 0.00 | 0.00 | 64 | 1000.0 |
| 20260510113203 | 61 | 34 | 5.2 | 7.8 | 0.00 | 0.00 | 0.00 | 64 | 1000.0 |
| 20260510112703 | 62 | 19 | 4.3 | 8.7 | 0.00 | 0.00 | 0.00 | 65 | 1000.0 |
| 20260510112204 | 61 | 16 | 4.3 | 8.7 | 0.00 | 0.00 | 0.00 | 66 | 1000.0 |
| 20260510111703 | 62 | 23 | 4.3 | 7.8 | 0.00 | 0.00 | 0.00 | 67 | 1000.0 |
| 20260510111204 | 62 | 45 | 2.6 | 10.4 | 0.00 | 0.00 | 0.00 | 68 | 1000.0 |
| 20260510110704 | 62 | 29 | 5.2 | 7.0 | 0.00 | 0.00 | 0.00 | 69 | 1000.0 |
| 20260510110203 | 62 | 17 | 4.3 | 7.0 | 0.00 | 0.00 | 0.00 | 70 | 1000.0 |
| 20260510105704 | 62 | 22 | 5.2 | 10.4 | 0.00 | 0.00 | 0.00 | 70 | 1000.0 |
| 20260510105204 | 62 | 20 | 4.3 | 8.7 | 0.00 | 0.00 | 0.00 | 70 | 1000.0 |
| 20260510104703 | 62 | 7 | 3.5 | 10.4 | 0.00 | 0.00 | 0.00 | 72 | 1000.0 |
| 20260510104203 | 63 | 18 | 5.2 | 10.4 | 0.00 | 0.00 | 0.00 | 72 | 1000.0 |
| 20260510103704 | 63 | 48 | 1.7 | 6.1 | 0.00 | 0.00 | 0.00 | 72 | 1000.0 |
| 20260510103204 | 63 | 21 | 3.5 | 7.8 | 0.00 | 0.01 | 0.00 | 71 | 1000.0 |
| 20260510102704 | 63 | 13 | 5.2 | 10.4 | 0.00 | 0.01 | 0.00 | 70 | 1000.0 |
| 20260510101204 | 63 | 4 | 1.7 | 5.2 | 0.00 | 0.01 | 0.00 | 76 | 1000.0 |
| 20260510100704 | 63 | 342 | 3.5 | 6.1 | 0.00 | 0.01 | 0.00 | 77 | 1000.0 |
| 20260510100204 | 63 | 351 | 1.7 | 5.2 | 0.00 | 0.01 | 0.00 | 78 | 1000.0 |
| 20260510095704 | 63 | 353 | 1.7 | 4.3 | 0.00 | 0.01 | 0.00 | 78 | 1000.0 |
| 20260510095203 | 63 | 22 | 2.6 | 4.3 | 0.00 | 0.01 | 0.00 | 78 | 1000.0 |
| 20260510094703 | 64 | 12 | 1.7 | 2.6 | 0.00 | 0.01 | 0.00 | 79 | 1000.0 |
| 20260510094204 | 64 | 6 | 0.9 | 2.6 | 0.00 | 0.01 | 0.00 | 80 | 1000.0 |
| 20260510093704 | 64 | 5 | 0.9 | 2.6 | 0.00 | 0.01 | 0.00 | 81 | 1000.0 |
| 20260510093203 | 64 | 349 | 1.7 | 4.3 | 0.00 | 0.01 | 0.00 | 81 | 1000.0 |
| 20260510092703 | 64 | 16 | 1.7 | 2.6 | 0.00 | 0.01 | 0.00 | 81 | 1000.0 |
| 20260510092204 | 64 | 31 | 1.7 | 2.6 | 0.00 | 0.01 | 0.00 | 81 | 1000.0 |
| 20260510091703 | 64 | 16 | 0.9 | 2.6 | 0.00 | 0.01 | 0.00 | 80 | 1000.0 |
| 20260510091204 | 64 | 91 | 1.7 | 2.6 | 0.00 | 0.01 | 0.00 | 80 | 1000.0 |
| 20260510090704 | 64 | 51 | 0.9 | 2.6 | 0.00 | 0.01 | 0.00 | 79 | 1000.0 |
| 20260510090204 | 64 | 113 | 0.9 | 1.7 | 0.00 | 0.01 | 0.00 | 78 | 1000.0 |
| 20260510085703 | 64 | 72 | 0.0 | 0.9 | 0.00 | 0.01 | 0.00 | 78 | 1000.0 |
| 20260510085204 | 64 | 39 | 0.0 | 1.7 | 0.00 | 0.01 | 0.00 | 78 | 1000.0 |
| 20260510084704 | 65 | 57 | 0.0 | 4.3 | 0.00 | 0.01 | 0.00 | 78 | 1000.0 |
| 20260510084203 | 65 | 69 | 0.9 | 5.2 | 0.00 | 0.01 | 0.00 | 77 | 1000.0 |
| 20260510083703 | 65 | 79 | 1.7 | 4.3 | 0.00 | 0.01 | 0.00 | 76 | 1000.0 |
| 20260510083203 | 65 | 64 | 1.7 | 4.3 | 0.00 | 0.01 | 0.00 | 76 | 1000.0 |
| 20260510082204 | 65 | 40 | 1.7 | 4.3 | 0.00 | 0.01 | 0.00 | 75 | 1000.0 |
| 20260510081703 | 65 | 42 | 2.6 | 6.1 | 0.00 | 0.01 | 0.00 | 75 | 1000.0 |
| 20260510081204 | 65 | 46 | 1.7 | 5.2 | 0.00 | 0.01 | 0.00 | 75 | 1000.0 |
| 20260510080704 | 65 | 7 | 2.6 | 5.2 | 0.00 | 0.01 | 0.00 | 75 | 1000.0 |
| 20260510080203 | 65 | 27 | 3.5 | 7.0 | 0.00 | 0.01 | 0.00 | 74 | 1000.0 |
| 20260510075704 | 65 | 33 | 2.6 | 6.1 | 0.00 | 0.01 | 0.00 | 74 | 1000.0 |
| 20260510075204 | 65 | 26 | 2.6 | 7.0 | 0.00 | 0.01 | 0.00 | 74 | 1000.0 |
| 20260510074703 | 65 | 32 | 4.3 | 7.8 | 0.00 | 0.01 | 0.00 | 73 | 1000.0 |
| 20260510074204 | 65 | 25 | 3.5 | 6.1 | 0.00 | 0.01 | 0.00 | 73 | 1000.0 |
| 20260510073704 | 65 | 38 | 4.3 | 7.8 | 0.00 | 0.01 | 0.00 | 73 | 1000.0 |
| 20260510073203 | 65 | 29 | 4.3 | 7.0 | 0.00 | 0.01 | 0.00 | 72 | 1000.0 |
| 20260510072703 | 66 | 27 | 2.6 | 7.8 | 0.00 | 0.01 | 0.00 | 72 | 1000.0 |
| 20260510071704 | 66 | 29 | 4.3 | 6.1 | 0.00 | 0.01 | 0.00 | 72 | 1000.0 |
| 20260510071203 | 66 | 357 | 3.5 | 7.8 | 0.00 | 0.01 | 0.00 | 72 | 1000.0 |
| 20260510070704 | 66 | 25 | 5.2 | 8.7 | 0.00 | 0.01 | 0.00 | 72 | 1000.0 |
| 20260510070204 | 66 | 33 | 2.6 | 7.8 | 0.00 | 0.01 | 0.00 | 73 | 1000.0 |
| 20260510065703 | 66 | 9 | 1.7 | 6.1 | 0.00 | 0.01 | 0.00 | 73 | 1000.0 |
| 20260510065204 | 66 | 10 | 2.6 | 6.1 | 0.00 | 0.01 | 0.00 | 73 | 1000.0 |
| 20260510064203 | 66 | 30 | 4.3 | 7.8 | 0.00 | 0.01 | 0.00 | 73 | 1000.0 |
| 20260510063204 | 66 | 16 | 4.3 | 7.8 | 0.00 | 0.01 | 0.00 | 74 | 1000.0 |
| 20260510062704 | 67 | 12 | 3.5 | 7.0 | 0.00 | 0.01 | 0.00 | 74 | 1000.0 |
| 20260510062204 | 67 | 9 | 4.3 | 8.7 | 0.00 | 0.01 | 0.00 | 74 | 1000.0 |
| 20260510061704 | 67 | 357 | 4.3 | 7.8 | 0.00 | 0.01 | 0.00 | 73 | 1000.0 |
| 20260510061204 | 67 | 350 | 2.6 | 7.0 | 0.00 | 0.01 | 0.00 | 74 | 1000.0 |
| 20260510060704 | 67 | 354 | 4.3 | 7.8 | 0.00 | 0.01 | 0.00 | 74 | 1000.0 |
| 20260510060203 | 67 | 358 | 4.3 | 8.7 | 0.00 | 0.01 | 0.00 | 72 | 1000.0 |
| 20260510055704 | 67 | 351 | 2.6 | 6.1 | 0.00 | 0.01 | 0.00 | 72 | 1000.0 |
| 20260510055204 | 68 | 351 | 2.6 | 7.0 | 0.00 | 0.01 | 0.00 | 71 | 1000.0 |
| 20260510054704 | 68 | 0 | 2.6 | 7.8 | 0.00 | 0.01 | 0.00 | 70 | 1000.0 |
| 20260510054204 | 68 | 348 | 4.3 | 7.8 | 0.00 | 0.01 | 0.00 | 68 | 1000.0 |
| 20260510053703 | 68 | 329 | 2.6 | 5.2 | 0.00 | 0.01 | 0.00 | 67 | 1000.0 |
| 20260510053203 | 68 | 328 | 1.7 | 4.3 | 0.00 | 0.01 | 0.00 | 68 | 1000.0 |
| 20260510052704 | 68 | 322 | 0.9 | 2.6 | 0.00 | 0.01 | 0.00 | 68 | 1000.0 |
| 20260510051203 | 69 | 294 | 0.9 | 1.7 | 0.00 | 0.01 | 0.00 | 65 | 1000.0 |
| 20260510050704 | 69 | 316 | 0.9 | 1.7 | 0.00 | 0.01 | 0.00 | 65 | 1000.0 |
| 20260510050204 | 70 | 283 | 1.7 | 2.6 | 0.00 | 0.01 | 0.00 | 64 | 1000.0 |
| 20260510045704 | 70 | 297 | 1.7 | 2.6 | 0.00 | 0.01 | 0.01 | 63 | 1000.0 |
| 20260510045203 | 70 | 283 | 1.7 | 1.7 | 0.00 | 0.01 | 0.01 | 61 | 1000.0 |
| 20260510044703 | 71 | 278 | 1.7 | 2.6 | 0.00 | 0.01 | 0.01 | 59 | 1000.0 |
| 20260510043704 | 71 | 48 | 0.0 | 0.0 | 0.00 | 0.01 | 0.01 | 58 | 1000.0 |
| 20260510042703 | 71 | 48 | 0.0 | 0.0 | 0.00 | 0.01 | 0.01 | 57 | 1000.0 |
| 20260510042204 | 71 | 48 | 0.0 | 0.0 | 0.00 | 0.01 | 0.01 | 57 | 1000.0 |
| 20260510041704 | 71 | 48 | 0.0 | 0.0 | 0.00 | 0.01 | 0.01 | 58 | 1000.0 |
| 20260510041203 | 71 | 48 | 0.0 | 0.0 | 0.00 | 0.01 | 0.01 | 58 | 1000.0 |
| 20260510040703 | 71 | 48 | 0.0 | 0.0 | 0.00 | 0.01 | 0.01 | 58 | 1000.0 |
| 20260510040203 | 72 | 47 | 0.9 | 2.6 | 0.00 | 0.01 | 0.01 | 56 | 1000.0 |
| 20260510035703 | 72 | 5 | 0.9 | 2.6 | 0.00 | 0.01 | 0.01 | 56 | 1000.0 |
| 20260510035204 | 72 | 7 | 0.9 | 1.7 | 0.00 | 0.01 | 0.01 | 56 | 1000.0 |
| 20260510034204 | 72 | 335 | 0.0 | 0.9 | 0.00 | 0.01 | 0.01 | 56 | 1000.0 |
| 20260510033704 | 73 | 358 | 0.9 | 2.6 | 0.00 | 0.01 | 0.01 | 55 | 1000.0 |
| 20260510033204 | 73 | 0 | 0.9 | 4.3 | 0.00 | 0.01 | 0.01 | 55 | 1000.0 |
| 20260510032703 | 73 | 10 | 1.7 | 2.6 | 0.00 | 0.01 | 0.01 | 54 | 1000.0 |
| 20260510032204 | 73 | 341 | 2.6 | 6.1 | 0.00 | 0.01 | 0.01 | 54 | 1000.0 |
| 20260510031204 | 73 | 355 | 3.5 | 7.0 | 0.00 | 0.01 | 0.01 | 55 | 1000.0 |
| 20260510025204 | 73 | 328 | 4.3 | 7.8 | 0.00 | 0.01 | 0.01 | 56 | 1000.0 |
| 20260510024704 | 73 | 313 | 7.0 | 14.8 | 0.00 | 0.01 | 0.01 | 57 | 1000.0 |
| 20260510024204 | 73 | 306 | 6.1 | 11.3 | 0.00 | 0.02 | 0.01 | 55 | 1000.0 |
| 20260510023703 | 74 | 351 | 6.1 | 13.0 | 0.00 | 0.04 | 0.01 | 50 | 1000.0 |
| 20260510023204 | 74 | 238 | 5.2 | 7.8 | 0.00 | 0.05 | 0.01 | 48 | 1000.0 |
| 20260510022704 | 74 | 223 | 6.1 | 8.7 | 0.00 | 0.06 | 0.01 | 46 | 1000.0 |
| 20260510022204 | 75 | 224 | 7.0 | 8.7 | 0.00 | 0.06 | 0.01 | 46 | 1000.0 |
| 20260510021704 | 75 | 222 | 7.0 | 8.7 | 0.00 | 0.07 | 0.01 | 46 | 1000.0 |
| 20260510021203 | 75 | 221 | 7.0 | 8.7 | 0.00 | 0.08 | 0.01 | 46 | 1000.0 |
| 20260510020203 | 75 | 217 | 7.0 | 7.8 | 0.00 | 0.09 | 0.01 | 44 | 1000.0 |
| 20260510015704 | 76 | 213 | 7.0 | 8.7 | 0.00 | 0.11 | 0.01 | 44 | 1000.0 |
| 20260510015203 | 76 | 215 | 6.1 | 7.8 | 0.00 | 0.12 | 0.01 | 44 | 1000.0 |
| 20260510014704 | 76 | 219 | 6.1 | 7.0 | 0.00 | 0.13 | 0.01 | 44 | 1000.0 |
| 20260510014203 | 76 | 215 | 6.1 | 7.8 | 0.00 | 0.14 | 0.01 | 44 | 1000.0 |
| 20260510013704 | 76 | 214 | 6.1 | 7.8 | 0.00 | 0.14 | 0.01 | 43 | 1000.0 |
| 20260510012704 | 76 | 212 | 5.2 | 7.0 | 0.00 | 0.18 | 0.01 | 44 | 1000.0 |
| 20260510012204 | 76 | 208 | 6.1 | 7.8 | 0.00 | 0.19 | 0.01 | 44 | 1000.0 |
| 20260510011703 | 77 | 214 | 4.3 | 6.1 | 0.00 | 0.21 | 0.01 | 44 | 1000.0 |
| 20260510011203 | 77 | 210 | 5.2 | 6.1 | 0.00 | 0.27 | 0.01 | 44 | 1000.0 |
| 20260510010703 | 77 | 213 | 4.3 | 6.1 | 0.00 | 0.29 | 0.01 | 44 | 1000.0 |
| 20260510010203 | 78 | 213 | 5.2 | 6.1 | 0.00 | 0.30 | 0.01 | 43 | 1000.0 |
| 20260510005704 | 78 | 215 | 4.3 | 6.1 | 0.00 | 0.31 | 0.01 | 43 | 1000.0 |
| 20260510005206 | 78 | 220 | 3.5 | 5.2 | 0.00 | 0.33 | 0.01 | 43 | 1000.0 |
| 20260510004704 | 79 | 228 | 2.6 | 5.2 | 0.00 | 0.35 | 0.01 | 43 | 1000.0 |
| 20260510004204 | 79 | 212 | 2.6 | 5.2 | 0.00 | 0.37 | 0.01 | 42 | 1000.0 |
| 20260510003704 | 79 | 212 | 3.5 | 5.2 | 0.00 | 0.37 | 0.01 | 42 | 1000.0 |
| 20260510002704 | 80 | 225 | 3.5 | 6.1 | 0.00 | 0.37 | 0.01 | 41 | 1000.0 |
| 20260510002203 | 80 | 223 | 3.5 | 6.1 | 0.00 | 0.37 | 0.01 | 39 | 1000.0 |
| 20260510001703 | 80 | 225 | 4.3 | 5.2 | 0.00 | 0.37 | 0.01 | 38 | 1000.0 |
| 20260510001204 | 80 | 248 | 4.3 | 6.1 | 0.00 | 0.37 | 0.01 | 38 | 1000.0 |
| 20260510000704 | 80 | 237 | 2.6 | 5.2 | 0.00 | 0.37 | 0.01 | 39 | 1000.0 |
| 20260510000204 | 80 | 233 | 3.5 | 5.2 | 0.00 | 0.37 | 0.01 | 38 | 1000.0 |
| 20260509235203 | 81 | 243 | 2.6 | 6.1 | 0.00 | 0.37 | 0.01 | 37 | 1000.0 |
| 20260509234704 | 81 | 241 | 1.7 | 5.2 | 0.00 | 0.37 | 0.01 | 36 | 1000.0 |
| 20260509234204 | 82 | 234 | 1.7 | 7.0 | 0.00 | 0.37 | 0.01 | 36 | 1000.0 |
| 20260509233703 | 82 | 243 | 4.3 | 7.0 | 0.00 | 0.37 | 0.01 | 35 | 1000.0 |
| 20260509232704 | 82 | 243 | 4.3 | 6.1 | 0.00 | 0.37 | 0.01 | 36 | 1000.0 |
| 20260509232204 | 82 | 227 | 5.2 | 7.8 | 0.00 | 0.37 | 0.01 | 34 | 1000.0 |
| 20260509231704 | 82 | 270 | 3.5 | 7.8 | 0.00 | 0.37 | 0.01 | 35 | 1000.0 |
| 20260509231203 | 82 | 245 | 4.3 | 7.8 | 0.00 | 0.37 | 0.01 | 33 | 1000.0 |
| 20260509230704 | 83 | 227 | 3.5 | 7.0 | 0.00 | 0.37 | 0.01 | 35 | 1000.0 |
| 20260509230204 | 83 | 242 | 2.6 | 5.2 | 0.00 | 0.37 | 0.01 | 35 | 1000.0 |
| 20260509225704 | 82 | 237 | 4.3 | 7.0 | 0.00 | 0.37 | 0.01 | 33 | 1000.0 |
| 20260509224704 | 83 | 240 | 1.7 | 6.1 | 0.00 | 0.37 | 0.01 | 36 | 1000.0 |
| 20260509224225 | 82 | 254 | 4.3 | 7.0 | 0.00 | 0.38 | 0.01 | 35 | 1000.0 |
| 20260509223204 | 83 | 257 | 4.3 | 7.0 | 0.00 | 0.38 | 0.01 | 32 | 1000.0 |
| 20260509222703 | 83 | 279 | 4.3 | 7.8 | 0.00 | 0.39 | 0.01 | 32 | 1000.0 |
| 20260509222204 | 84 | 259 | 2.6 | 6.1 | 0.00 | 0.41 | 0.01 | 33 | 1000.0 |
| 20260509221703 | 84 | 235 | 5.2 | 7.0 | 0.00 | 0.42 | 0.01 | 31 | 1000.0 |
| 20260509221204 | 85 | 293 | 4.3 | 6.1 | 0.00 | 0.43 | 0.01 | 30 | 1000.0 |
| 20260509220704 | 84 | 304 | 2.6 | 8.7 | 0.00 | 0.44 | 0.01 | 30 | 1000.0 |
| 20260509220203 | 84 | 295 | 4.3 | 7.8 | 0.00 | 0.44 | 0.01 | 29 | 1000.0 |
| 20260509215703 | 84 | 272 | 3.5 | 7.0 | 0.00 | 0.44 | 0.01 | 30 | 1000.0 |
| 20260509215204 | 84 | 280 | 4.3 | 7.0 | 0.00 | 0.44 | 0.01 | 30 | 1000.0 |
| 20260509214703 | 84 | 280 | 6.1 | 11.3 | 0.00 | 0.44 | 0.01 | 31 | 1000.0 |
| 20260509214204 | 83 | 262 | 3.5 | 7.0 | 0.00 | 0.44 | 0.01 | 34 | 1000.0 |
| 20260509213704 | 84 | 292 | 4.3 | 7.0 | 0.00 | 0.44 | 0.01 | 32 | 1000.0 |
| 20260509213204 | 83 | 286 | 3.5 | 11.3 | 0.00 | 0.44 | 0.01 | 32 | 1000.0 |
| 20260509212703 | 83 | 303 | 6.1 | 8.7 | 0.00 | 0.44 | 0.01 | 32 | 1000.0 |
| 20260509212204 | 83 | 276 | 4.3 | 11.3 | 0.00 | 0.44 | 0.01 | 32 | 1000.0 |
| 20260509211703 | 84 | 284 | 4.3 | 7.8 | 0.00 | 0.44 | 0.01 | 31 | 1000.0 |
| 20260509211204 | 83 | 257 | 4.3 | 7.0 | 0.00 | 0.44 | 0.01 | 32 | 1000.0 |
| 20260509210704 | 83 | 267 | 2.6 | 7.8 | 0.00 | 0.44 | 0.01 | 36 | 1000.0 |
| 20260509210204 | 83 | 264 | 4.3 | 7.8 | 0.00 | 0.44 | 0.01 | 33 | 1000.0 |
| 20260509205703 | 83 | 282 | 4.3 | 7.8 | 0.00 | 0.44 | 0.01 | 34 | 1000.0 |
| 20260509205203 | 83 | 250 | 4.3 | 8.7 | 0.00 | 0.44 | 0.01 | 34 | 1000.0 |